Время (UTC), дата Ветер
(°,м/с) 
Видим.   Явления Облачность Т
(°С)
Тd
(°С)
f(%) Тe
(°С)
Pmin
(гПа)
dP
(гПа)
Po
(мм)
O2
(г/м3)
Тmin Tmax R s Состояние
почвы
00 01.09.10 100 (В) >10 км    ясно 
+20.4 +14 67 +29  1004.8  -0.3  715  265           
03 01.09.10 110 (В) >10 км    ясно 
+17.9 +15.1 84 +28  1004.4  -0.7  715  267           
06 01.09.10 090 (В) >10 км    ясно 
+26 +14.1 48 +34  1002.3  -0.6  714  260  +17.7         
09 01.09.10 120 (ЮВ) >10 км    3/0 средняя 
[Ac trans]
+32.6 +14.6 34 +42  999.9  -1.3  713  254           
12 01.09.10 120 (ЮВ) >10 км    3/0 средняя 
[Ac trans]
+36.6 +11.5 22 +41  998.1  -1.2  713  251           
15 01.09.10 120 (ЮВ) >10 км    3/0 средняя 
[Ac trans]
+35 +10.6 23 +38  997.8  -0.5  712  252           
18 01.09.10 100 (В) >10 км    4/0 средняя 
[Ac trans]
+29.7 +4.3 20 +30  1000  1.1  713  258    +37.3       
21 01.09.10 150 (ЮВ) >10 км    ясно 
+24.4 +7.6 34 +24  1000.9  0.1  713  262           
00 02.09.10 270 (З) >10 км    3/0 средняя 
[Ac trans]
+25.4 +14.8 52 +35  1000.9  0.3  713  260           
03 02.09.10 270 (З) >10 км  в посл. час гроза{ливн. осадки}  6/3 1000 м кучево-дожд., средняя 
[Cb calv|Ac trans]
+23 +18.9 78 +41  1003.3  1.9  715  261           
06 02.09.10 280 (З) >10 км  {гроза, ливн. осадки}  5/3 300 м кучево-дожд., средняя 
[Cb calv|Ac trans]
+24.3 +19.3 74 +43  1004.5  1.5  716  260  +22.9    0.5     
09 02.09.10 310 (СЗ) >10 км    6/3 600 м кучево-дожд., средняя 
[Cb calv|Ac trans]
+27.3 +16.9 53 +41  1006.2  717  258           
12 02.09.10 300 (СЗ) >10 км    8/4 600 м кучево-дожд., средняя 
[Cb calv|Ac trans]
+25.1 +14.8 53 +35  1009.5  2.7  719  262           
15 02.09.10 280 (З) >10 км    8/6 480 м кучево-дожд., средняя 
[Cb calv|Ac trans]
+19.8 +16.1 79 +32  1011.9  1.5  720  267           
18 02.09.10 250 (З) >10 км  гроза без осадков  6/4 600 м кучево-дожд., средняя 
[Cb cap|Ac trans]
+17.2 +13.3 78 +24  1014.5  1.9  722  271    +28.8       
21 02.09.10 250 (З) >10 км  в посл. час ливневой дождь{гроза}  9/5 600 м кучево-дожд., средняя 
[Cb calv|Ac trans]
+15.8 +14.6 93 +25  1016.7  1.9  723  272           
00 03.09.10 250 (З) >10 км  {гроза, ливн. осадки}  3/0 средняя 
[Ac trans]
+15.3 +13.9 91 +24  1018.7  1.8  725  274           
03 03.09.10 230 (ЮЗ) >10 км    4/0 средняя, верхняя 
[Ac trans|Ci sp]
+15 +13 88 +22  1020.5  1.6  726  275           
06 03.09.10 260 (З) >10 км    9/5 1000 м кучево-дожд., средняя 
[Cb calv|Ac trans]
+19 +12.8 67 +25  1021.7  1.8  727  271  +15    11     
09 03.09.10 290 (З) >10 км    8/4 1000 м кучево-дожд., средняя 
[Cb calv|Ac trans]
+23.3 +11.7 48 +27  1021  0.1  727  268           
12 03.09.10 270 (З) >10 км    8/3 1000 м кучево-дожд., средняя 
[Cb calv|Ac trans]
+25.4 +10.9 40 +28  1019.8  -0.9  727  266           
15 03.09.10 110 (В) >10 км    8/0 средняя 
[Ac trans]
+23.3 +11.2 46 +27  1019.7  -0.3  726  268           
18 03.09.10 120 (ЮВ) >10 км    8/0 средняя 
[Ac trans]
+20.9 +12 57 +26    0.6  727  270    +26.3       
21 03.09.10 130 (ЮВ) >10 км    8/0 средняя 
[Ac trans]
+19.8 +13.1 65 +27  1020.4  -0.6  726  270           
00 04.09.10 060 (СВ) >10 км    10/0 средняя 
[Ac und]
+19.7 +13.2 66 +28  1019.4  -0.9  726  270           
03 04.09.10 050 (СВ) >10 км    8/4 1000 м кучево-дожд., средняя 
[Cb calv|Ac trans]
+18 +13.6 75 +25  1019.2  -0.4  725  271           
06 04.09.10 070 (В) >10 км    3/0 средняя 
[Ac trans]
+22.8 +11.2 48 +26  1018.4  725  268  +17.7         
09 04.09.10 060 (СВ) >10 км    3/0 средняя 
[Ac trans]
+26.2 +10 36 +28  1016.7  -1.1  725  265           
12 04.09.10 080 (В) >10 км    1/0 средняя 
[Ac trans]
+28.4 +9.2 30 +29  1013.7  -2.5  723  262           
15 04.09.10 060 (СВ) >10 км    ясно 
+26.8 +10.2 35 +29  1014.7  0.7  723  264           
18 04.09.10 050 (СВ) >10 км    ясно 
+22.4 +9.2 43 +23  1015.1  -0.4  723  268    +29.7       
21 04.09.10 030 (СВ) >10 км    ясно 
+19.9 +7.4 44 +21  1015  -0.5  723  270           
00 05.09.10 060 (СВ) >10 км    ясно 
+17.1 +6.8 51 +18  1013.6  -1.9  721  272           
03 05.09.10 100 (В) >10 км    3/0 средняя 
[Ac trans]
+15.6 +8.1 61 +17  1013.3  -0.4  721  273           
06 05.09.10 330 (СЗ) >10 км    ясно 
+22.9 +10.6 46 +26  1011.6  -0.4  721  266  +14.6         
09 05.09.10 320 (СЗ) >10 км    ясно 
+27.6 +13.6 42 +35  1009.5  -1.2  720  261           
12 05.09.10 270 (З) >10 км    ясно 
+29.5 +13.4 37 +37  1008.4  -0.8  719  259           
15 05.09.10 320 (СЗ) >10 км    ясно 
+28.2 +13.4 40 +35  1007.6  -0.9  718  260           
18 05.09.10 320 (СЗ) >10 км    ясно 
+19.1 +12.5 66 +26  1010.7  1.5  719  268    +30.5       
21 05.09.10 290 (З) >10 км    ясно 
+22.6 +9.5 43 +24  1010.7  0.5  720  266           
00 06.09.10 250 (З) >10 км    ясно 
+21 +10.6 51 +24  1011.6  0.5  720  267           
03 06.09.10 280 (З) >10 км    6/0 средняя 
[Ac trans]
+19.7 +12.8 64 +26  1013  1.2  721  268           
06 06.09.10 280 (З) >10 км    3/1 600 м средняя 
[Cu hum|Ac trans]
+23.1 +13.9 56 +31  1013.4  722  265  +18.9         
09 06.09.10 260 (З) >10 км    1/0 средняя 
[Ac trans]
+27.8 +14.8 45 +37  1012.1  -0.4  722  261           
12 06.09.10 290 (З) >10 км    3/3 600 м 
[Cu hum]
+29.1 +15.2 43 +39  1010.4  -1.5  720  259           
15 06.09.10 340 (С) >10 км    9/5 1000 м средняя 
[Sc|Ac trans]
+27.4 +13.1 41 +34  1010.2  -0.5  720  261           
18 06.09.10 340 (С) >10 км    5/0 средняя 
[Ac trans]
+24.8 +11.7 44 +29  1011  0.4  720  264    +30.1       
21 06.09.10 340 (С) >10 км    4/0 средняя 
[Ac trans]
+22.7 +9.7 44 +24  1011.5  720  266           
00 07.09.10 040 (СВ) >10 км    ясно 
+20.2 +10.6 54 +23  1011.5  -0.4  720  268           
03 07.09.10 070 (В) >10 км    6/0 средняя 
[Ac trans]
+19 +10.5 58 +23  1011.6  -0.1  720  269           
06 07.09.10 060 (СВ) >10 км    3/0 средняя 
[Ac trans]
+22.5 +9.5 44 +24  1011.7  0.7  721  267  +18.8         
09 07.09.10 260 (З) >10 км    3/0 средняя 
[Ac trans]
+25.5 +9.8 37 +27  1010.7  -0.4  720  264           
12 07.09.10 060 (СВ) >10 км    6/3 1000 м кучево-дожд., средняя 
[Cb calv|Ac trans]
+25.8 +10.2 37 +28  1011.3  0.5  721  263           
15 07.09.10 040 (СВ) >10 км  гроза, ливневой дождь  10/8 900 м кучево-дожд., средняя 
[Cb cap|Ac und]
+23.5 +8.2 38 +24  1010.9  -0.7  720  266           
18 07.09.10 130 (ЮВ) >10 км  гроза, ливневой дождь  10/8 600 м кучево-дожд., средняя 
[Cb calv|Ac und]
+16.7 +12.2 75 +22  1012  -0.1  720  271    +27.6  0.0     
21 07.09.10 060 (СВ) >10 км  в посл. час ливневой дождь{гроза}  10/6 900 м кучево-дожд., средняя 
[Cb calv|Ac und]
+16.3 +12.3 77 +21  1012  720  271           
00 08.09.10 100 (В) >10 км  гроза, ливневой дождь  10/6 800 м кучево-дожд., средняя 
[Cb cap|Ac und]
+14.2 +11 81 +17  1012.9  0.4  720  274           
03 08.09.10 120 (ЮВ) >10 км  {гроза, ливн. осадки}  9/5 600 м кучево-дожд., средняя 
[Cb calv|Ac trans]
+14 +13.2 95 +20  1012.7  -0.2  720  273           
06 08.09.10 170 (Ю) >10 км  в посл. час ливневой дождь{гроза}  8/4 600 м кучево-дожд., средняя 
[Cb calv|Ac trans]
+16.2 +14.6 90 +25  1013.5  1.2  721  271  +13.9       
09 08.09.10 240 (ЮЗ) >10 км    4/4 300 м 
[Sc diur, vesp]
+22.4 +13.8 58 +30  1013.1  0.7  722  266           
12 08.09.10 290 (З) >10 км    3/1 600 м средняя 
[Sc diur, vesp|Ac trans]
+22.4 +11.1 49 +26  1014.5  1.3  723  267           
15 08.09.10 300 (СЗ) >10 км    6/0 средняя, верхняя 
[Ac trans|Ci fib]
+20.6 +8.6 46 +21  1016.2  1.2  723  270           
18 08.09.10 360 (С) >10 км    3/0 верхняя 
[Ci fib]
+14.9 +10.2 73 +17  1019.3  1.9  725  275    +23.8  0.0     
21 08.09.10 350 (С) >10 км    3/0 средняя 
[Ac trans]
+12.9 +10.2 84 +16  1019.2  -0.5  725  277           
00 09.09.10 010 (С) 10 км    5/0 средняя 
[Ac trans]
+12.2 +11.2 94 +16  1019.9  0.4  725  277           
03 09.09.10 120 (ЮВ) 0200 м  туман  ?/?  
+12 +12 100 +17  1020  0.4  725  277           
06 09.09.10 040 (СВ) 0200 м  слаб. морось{туман}  ?/?  
+11.6 +11.6 100 +15  1020.7  0.6  726  278  +11.4         
09 09.09.10 040 (СВ) 4000 м  дымка{морось, туман}  8/6 180 м верхняя 
[St|Ci fib]
+13.8 +11.3 85 +18  1020.7  0.3  726  276           
12 09.09.10 040 (СВ) >10 км  {морось, туман}  9/9 300 м средняя 
[Sc|Ac trans]
+14.6 +9.3 70 +15  1020.8  0.3  726  276           
15 09.09.10 010 (С) >10 км    10/8 540 м средняя 
[Sc|Ac und]
+11.2 +8.5 83 +10  1022.1  0.6  726  280           
18 09.09.10 030 (СВ) >10 км    10/3 600 м средняя 
[Sc|Ac und]
+11.2 +7 75 +11  1023.2  727  280    +17.6  0.0     
21 09.09.10 040 (СВ) >10 км    10/3 200 м средняя 
[Sc|Ac und]
+10.1 +5.5 73 +9  1023.9  0.4  728  282           
00 10.09.10 040 (СВ) >10 км    9/3 300 м средняя 
[Sc|Ac trans]
+8.9 +6.2 83 +8  1024  -0.1  727  283           
03 10.09.10 070 (В) >10 км    9/1 300 м средняя 
[Sc|Ac trans]
+8.2 +6.4 88 +7  1024.1  727  283           
06 10.09.10 050 (СВ) >10 км    9/5 300 м средняя 
[Sc|Ac trans]
+10.3 +5.5 72 +9  1024.2  0.5  728  282  +8.1         
09 10.09.10 010 (С) 33  0600 м    5/5 1000 м средняя 
[Sc|Ac trans]
+5   1023.3  -0.3  728             
12 10.09.10 070 (В) >10 км    4/4 600 м 
[Cu hum]
+15.9 +4.6 47 +16  1022  -0.8  727  276           
15 10.09.10 090 (В) >10 км    4/3 1000 м средняя 
[Sc diur, vesp|Ac trans]
+15 +4 48 +14  1022  -0.2  727  277           
18 10.09.10 080 (В) >10 км    3/0 средняя 
[Ac trans]
+11.8 +3.4 56 +11  1023.5  0.8  727  280    +17.1       
21 10.09.10 070 (В) >10 км    ясно 
+10.4 +2.1 56 +9  1023  -0.7  727  282           
00 11.09.10 080 (В) >10 км    ясно 
+7.7 +2.5 70 +6  1023.3  -0.2  727  284           
03 11.09.10 070 (В) >10 км    ясно 
+7.4 +2.9 73 +6  1022.5  -0.7  726  284           
06 11.09.10 110 (В) >10 км    ясно 
+15.7 +2.9 42 +15  1021.6  0.5  727  276  +7.2         
09 11.09.10 100 (В) 12  >10 км    ясно 
+19.4 +2.3 32 +19  1021.2  0.3  727  273           
12 11.09.10 110 (В) 11{18}  >10 км    ясно 
+21.4 +3.8 31 +21  1019.8  -0.9  726  271           
15 11.09.10 090 (В) 12  >10 км    ясно 
+20.2 +2.7 31 +20  1019.2  -0.8  726  272           
18 11.09.10 090 (В) >10 км    ясно 
+16.3 +7 54 +16  1020.2  0.3  726  275    +22.3       
21 11.09.10 100 (В) 10  >10 км    ясно 
+14.2 +9.3 72 +14  1019.9  -0.6  725  276           
00 12.09.10 100 (В) >10 км    3/0 средняя 
[Ac trans]
+13.2 +9.7 79 +13  1019.3  -0.8  725  277           
03 12.09.10 110 (В) >10 км    4/3 1000 м средняя 
[Sc|Ac trans]
+13.5 +9.5 77 +13    725  277           
06 12.09.10 100 (В) 12  >10 км    4/4 600 м 
[Sc]
+17.6 +9.7 60 +18  1017.6  -0.8  724  272  +13.1         
09 12.09.10 100 (В) 12{18}  >10 км    ясно 
+22.3 +8.4 41 +22  1015.3  -1.4  723  268           
12 12.09.10 100 (В) 13{18}  >10 км    ясно 
+25.1 +8.1 34 +25  1012.5  -2.2  721  265           
15 12.09.10 100 (В) >10 км    ясно 
+22.9 +8.4 39 +23  1012.1  -0.8  721  267           
18 12.09.10 100 (В) >10 км    ясно 
+18.1 +8.9 55 +19  1012.9  721  271    +26.1       
21 12.09.10 100 (В) >10 км    ясно 
+15.5 +9.9 69 +17  1011.8  -1.5  720  273           
00 13.09.10 090 (В) >10 км    8/8 570 м 
[Sc]
+14.9 +12 83 +19  1010.9  -0.9  719  272           
03 13.09.10 060 (СВ) >10 км    10/5 600 м средняя 
[Sc|Ac und]
+15.5 +13.1 86 +22  1010.5  -0.3  719  271           
06 13.09.10 110 (В) 10 км    10/6 700 м средняя 
[Sc|Ac und]
+16.7 +14.2 85 +25  1011.5  1.2  720  270  +14         
09 13.09.10 110 (В) >10 км  {дождь}  10/8 600 м кучево-дожд., средняя 
[Cb calv|Ac und]
+18 +14.7 81 +27  1011.6  0.5  720  269           
12 13.09.10 080 (В) >10 км  {дождь}  9/5 600 м кучево-дожд., средняя 
[Cb calv|Ac trans]
+20.8 +15.2 70 +31  1009.5  -1.7  719  266           
15 13.09.10 090 (В) >10 км    8/3 1000 м кучево-дожд., верхняя 
[Cb calv|Ci fib]
+20.4 +15.1 72 +30  1009.8  0.3  719  266           
18 13.09.10 070 (В) >10 км    8/3 600 м кучево-дожд., средняя 
[Cb calv|Ac trans]
+18.6 +15.8 84 +30  1010.7  0.5  719  268    +22  0.0     
21 13.09.10 080 (В) >10 км    10/8 450 м кучево-дожд., средняя 
[Cb calv|Ac und]
+17.4 +15.5 89 +28  1010.7  -0.2  719  269           
00 14.09.10 070 (В) >10 км  слаб. ливневой дождь  10/8 500 м кучево-дожд., средняя 
[Cb cap|Ac und]
+15.1 +13.3 89 +21  1011.1  -0.1  719  272           
03 14.09.10 070 (В) >10 км  {ливн. осадки}  9/8 630 м кучево-дожд., средняя 
[Cb calv|Ac und]
+13.9 +8.8 71 +14  1012.4  0.9  720  274           
06 14.09.10 080 (В) >10 км  сильн. ливневой дождь  10/6 600 м средняя 
[Sc diur, vesp|Ac und]
+15.4 +8.5 63 +15  1011.5  -0.5  719  273  +13.7       
09 14.09.10 060 (СВ) >10 км    9/5 600 м кучево-дожд., средняя 
[Cb calv|Ac trans]
+20.5 +9.9 51 +22  1011.2  0.6  720  268           
12 14.09.10 090 (В) 10  >10 км    10/4 1000 м средняя, верхняя 
[Sc diur, vesp|Ac trans|Ci sp]
+23.1 +4.5 30 +23  1012  721  267           
15 14.09.10 120 (ЮВ) >10 км    10/3 1000 м средняя, верхняя 
[Sc|Ac trans|Ci]
+18.8 +8.1 50 +19  1014.4  1.6  722  271           
18 14.09.10 100 (В) >10 км    5/0 средняя, верхняя 
[Ac trans|Ci fib]
+13.7 +11.2 85 +17  1017  1.6  723  275    +24.1       
21 14.09.10 100 (В) >10 км    3/0 средняя 
[Ac trans]
+12.5 +10.2 86 +14  1017.4  0.2  723  277           
00 15.09.10 090 (В) >10 км    3/1 1000 м средняя 
[Sc|Ac trans]
+10.5 +9.7 95 +10  1018  0.2  723  279           
03 15.09.10 100 (В) >10 км    5/1 1000 м средняя, верхняя 
[Sc|Ac trans|Ci]
+10.2 +8.5 89 +9  1018.1  723  279           
06 15.09.10 090 (В) >10 км    9/5 600 м средняя 
[Sc|Ac trans]
+15.6 +11.1 75 +18  1017.2  0.1  724  274  +9.9         
09 15.09.10 100 (В) 10  >10 км    9/4 600 м средняя 
[Sc|Ac trans]
+20.3 +7 42 +20    0.1  724  270           
12 15.09.10 100 (В) 11  >10 км    8/3 600 м средняя, верхняя 
[Sc|Ac trans|Ci fib]
+22.2 +3.2 29 +22  1016  -0.2  723  269           
15 15.09.10 100 (В) >10 км    9/6 1000 м средняя 
[Sc|Ac trans]
+19.7 +7.4 45 +20  1016.3  723  271           
18 15.09.10 130 (ЮВ) >10 км    8/8 1000 м кучево-дожд., средняя 
[Cb calv|Ac trans]
+16.2 +9.9 66 +18  1016.9    723  273    +23.8       
21 15.09.10 100 (В) >10 км  {ливн. осадки}  6/3 1000 м кучево-дожд., средняя 
[Cb calv|Ac trans]
+13 +8.4 74 +13  1017.6  -0.1  723  277           
00 16.09.10 090 (В) >10 км  в посл. час ливневой дождь  10/6 1000 м кучево-дожд., средняя 
[Cb calv|Ac und]
+12.7 +9.8 82 +15  1017  -0.6  723  277           
03 16.09.10 110 (В) >10 км    9/5 1000 м кучево-дожд., средняя 
[Cb calv|Ac trans]
+12.8 +10 83 +15  1017  723  276           
06 16.09.10 130 (ЮВ) >10 км    5/0 средняя 
[Ac trans]
+16.9 +12.4 75 +22  1016.8  0.6  723  272  +12.5       
09 16.09.10 090 (В) >10 км    4/3 600 м средняя 
[Cu hum|Ac trans]
+22.2 +12.3 53 +27  1015.4  -0.3  723  267           
12 16.09.10 050 (СВ) >10 км    6/6 700 м 
[Cu med, cong]
+24.2 +11.4 45 +28  1015  -0.2  723  265           
15 16.09.10 050 (СВ) >10 км    8/4 1000 м кучево-дожд., средняя 
[Cb calv|Ac trans]
+22.6 +12.2 52 +28  1015.3  0.1  723  267           
18 16.09.10 050 (СВ) >10 км    3/0 средняя 
[Ac trans]
+19.2 +12.8 66 +26  1016.4  0.5  724  270    +25.5       
21 16.09.10 120 (ЮВ) >10 км    3/0 средняя 
[Ac trans]
+16.6 +10.2 66 +19  1016.4  -0.5  723  273           
00 17.09.10 160 (Ю) >10 км    ясно 
+15.6 +12 79 +21  1016.7  -0.1  723  273           
03 17.09.10 160 (Ю) >10 км    1/0 средняя 
[Ac trans]
+14.5 +11.8 84 +19  1017.3  0.4  724  275           
06 17.09.10 140 (ЮВ) >10 км    ясно 
+20.3 +13.3 64 +27  1016.1  -0.2  723  269  +13.5         
09 17.09.10 110 (В) >10 км    ясно 
+26.3 +11.4 39 +30  1014.2  -0.7  723  264           
12 17.09.10 100 (В) >10 км    1/1 600 м 
[Cu hum]
+27.3 +9.4 32 +28  1013.4  -0.7  722  263           
15 17.09.10 090 (В) >10 км    1/0 средняя 
[Ac trans]
+24.6 +9.7 39 +26  1013.3  -0.5  722  265           
18 17.09.10 150 (ЮВ) >10 км    3/0 верхняя 
[Ci fib]
+18 +11.4 65 +23  1014.8  0.3  722  271    +28.4       
21 17.09.10 100 (В) >10 км    4/0 верхняя 
[Ci fib]
+15.5 +11.2 76 +19  1014.7  -0.5  722  273           
00 18.09.10 100 (В) >10 км    1/0 верхняя 
[Ci fib]
+14.5 +13.4 93 +22  1014.4  -0.5  721  273           
03 18.09.10 070 (В) >10 км    8/0 верхняя 
[Ci fib]
+12.4 +11.4 94 +17  1015  0.2  722  276           
06 18.09.10 130 (ЮВ) >10 км    6/0 верхняя 
[Ci fib]
+17.7 +13.9 78 +26  1014.2  0.3  722  270  +12.3         
09 18.09.10 120 (ЮВ) >10 км    3/1 1000 м верхняя 
[Cu hum|Ci fib]
+24.5 +14.6 54 +34  1012.7  -0.3  722  264           
12 18.09.10 040 (СВ) >10 км    3/3 600 м верхняя 
[Cu med, cong|Ci fib]
+26.4 +12.5 42 +32  1012.3  -0.1  722  263           
15 18.09.10 090 (В) >10 км    3/3 600 м верхняя 
[Cu med, cong|Ci fib]
+23.1 +12.2 50 +28  1012.7  -0.2  721  266           
18 18.09.10 110 (В) >10 км    ясно 
+19.4 +12.3 63 +25  1014.4  722  269    +27.2       
21 18.09.10 150 (ЮВ) >10 км    ясно 
+19.2 +12.4 65 +25  1013.6  -0.8  722  269           
00 19.09.10 180 (Ю) >10 км    ясно 
+16.4 +12.4 77 +22  1014.1  722  272           
03 19.09.10 290 (З) >10 км    6/3 1000 м кучево-дожд., средняя 
[Cb cap|Ac As]
+18 +11.4 65 +22  1014.8  0.9  722  271  +14.7        сухая 
06 19.09.10 330 (СЗ) >10 км    8/5 1000 м кучево-дожд., средняя 
[Cb calv|Ac trans]
+22.3 +9.5 44 +24  1014.4  0.3  722  267  +14.7         
09 19.09.10 360 (С) >10 км    6/0 верхняя 
[Ci fib]
+24.8 +11.4 43 +29  1013.8  -0.1  722  265           
12 19.09.10 040 (СВ) >10 км    8/6 600 м кучево-дожд., средняя 
[Cb calv|Ac trans]
+26.2 +11.2 39 +30  1012.8  -0.7  722  263           
15 19.09.10 020 (С) >10 км    6/4 600 м кучево-дожд., средняя 
[Cb calv|Ac trans]
+24.8 +11.7 44 +29  1013  722  264           
18 19.09.10 тихо ()   >10 км    6/3 1000 м кучево-дожд., средняя 
[Cb calv|Ac trans]
+20.7 +13 61 +27  1014.2  0.4  722  268    +27.7       
21 19.09.10 130 (ЮВ) >10 км    3/0 средняя 
[Ac trans]
+19 +10.5 58 +23  1014.3  -0.2  722  270           
00 20.09.10 140 (ЮВ) >10 км    1/0 средняя 
[Ac trans]
+18.9 +13.2 69 +27  1014.4  0.1  722  269           
03 20.09.10 130 (ЮВ) >10 км    4/0 средняя 
[Ac trans]
+16.6 +12.8 78 +23  1014.8  722  272           
06 20.09.10 140 (ЮВ) >10 км    5/0 средняя, верхняя 
[Ac trans|Ci fib]
+22 +13.3 58 +29  1014.4  0.5  722  267  +15.1         
09 20.09.10 080 (В) >10 км    9/0 верхняя 
[Ci]
+26.7 +11.5 39 +31  1013  -0.5  722  263           
12 20.09.10 110 (В) >10 км    8/0 верхняя 
[Ci fib]
+28.2 +9.8 32 +30  1012.2  -0.6  722  262           
15 20.09.10 100 (В) >10 км    8/0 верхняя 
[Ci fib]
+24.4 +11.1 43 +28  1012.8  722  265           
18 20.09.10 100 (В) >10 км    8/0 верхняя 
[Ci fib]
+18.9 +7.8 48 +19  1014.5  0.6  722  271    +29.2       
21 20.09.10 140 (ЮВ) >10 км    3/0 верхняя 
[Ci fib]
+15.5 +6.2 54 +15  1014.8  -0.3  722  274           
00 21.09.10 110 (В) >10 км    ясно 
+13.8 +7.6 66 +13  1014.4  -0.7  721  275           
03 21.09.10 110 (В) >10 км    8/0 средняя, верхняя 
[Ac trans|Ci fib]
+12.3 +8.9 80 +13  1014.2  -0.4  721  276           
06 21.09.10 120 (ЮВ) >10 км    3/0 верхняя 
[Ci fib]
+18.1 +10.5 61 +22  1014.6  1.4  722  271  +12.2         
09 21.09.10 100 (В) >10 км    8/0 верхняя 
[Ci fib]
+26.4 +10.4 37 +29  1012.9  -0.2  722  263           
12 21.09.10 040 (СВ) >10 км    8/0 верхняя 
[Ci fib]
+29.7 +11.4 32 +34  1012.1  -0.2  722  260           
15 21.09.10 090 (В) >10 км    8/0 верхняя 
[Ci fib]
+25.8 +13.1 45 +32  1013.1  0.3  722  263           
18 21.09.10 130 (ЮВ) >10 км    8/0 средняя, верхняя 
[Ac trans|Ci fib]
+21 +12.2 57 +26  1014.5  0.5  722  268    +29.9       
00 22.09.10 280 (З) >10 км    ясно 
+20.9 +13.6 63 +28  1014.1  -0.5  722  267           
03 22.09.10 300 (СЗ) >10 км    8/0 средняя, верхняя 
[Ac trans|Ci fib]
+16.8 +13.2 79 +24  1015.4  0.6  722  272           
06 22.09.10 320 (СЗ) >10 км    10/3 1000 м средняя, верхняя 
[Sc|Ac trans|Ci sp]
+22.1 +13.8 59 +30  1015.7  1.2  723  267  +16.3         
09 22.09.10 320 (СЗ) >10 км    10/3 600 м средняя, верхняя 
[Cu hum|Ac trans|Ci sp]
+24.2 +16 60 +36  1015.8  0.5  724  264           
12 22.09.10 330 (СЗ) >10 км    10/4 600 м кучево-дожд., средняя, верхняя 
[Cb cap|Ac trans|Ci sp]
+25.2 +14.9 53 +35  1014.8  -0.8  723  264           
15 22.09.10 320 (СЗ) >10 км  зарница{ливн. осадки}  10/6 600 м кучево-дожд., средняя 
[Cb cap|Ac und]
+21.4 +15 67 +31  1015.8  0.3  723  267           
18 22.09.10 260 (З) >10 км  слаб. ливневой дождь{гроза}  10/8 300 м кучево-дожд., средняя 
[Cb cap|Ac und]
+16.4 +15.9 97 +28  1017.4  0.7  724  272    +26.5  0.0     
21 22.09.10 190 (Ю) >10 км  {гроза, ливн. осадки}  10/5 600 м кучево-дожд., средняя 
[Cb cap|Ac und]
+16.4 +15.9 97 +28  1017.8  0.4  724  272           
00 23.09.10 260 (З) 10 км  гроза, ливневой дождь  10/6 750 м кучево-дожд., средняя 
[Cb cap|Ac und]
+16.6 +15.8 95 +28  1017.5  -0.3  724  272           
03 23.09.10 260 (З) 4000 м  дымка{гроза, ливн. осадки}  10/6 500 м кучево-дожд., средняя 
[Cb calv|Ac und]
+16.2 +15.9 98 +28  1017.2  -0.4  724  272           
06 23.09.10 320 (СЗ) 2000 м  дымка{гроза, ливн. осадки}  10/6 150 м кучево-дожд., средняя 
[Cb calv|Ac und]
+15.5 +14.4 93 +24  1018.2  0.8  724  273      22     
09 23.09.10 310 (СЗ) 2000 м  дымка{ливн. осадки}  10/8 180 м кучево-дожд., средняя 
[Cb calv|Ac und]
+15 +13.9 93 +23  1019.6  1.2  725  274           
12 23.09.10 300 (СЗ) 10 км  {ливн. осадки}  8/5 300 м кучево-дожд., средняя 
[Cb calv|Ac trans]
+17.1 +11.8 71 +21  1019  -0.1  725  273           
15 23.09.10 270 (З) >10 км    4/3 1000 м верхняя 
[Sc|Ci fib]
+15.7 +10.4 71 +18  1019.8  0.4  725  274           
18 23.09.10 240 (ЮЗ) >10 км    3/0 средняя 
[Ac trans]
+12.4 +9.3 81 +13  1021.3  0.8  726  278    +17.9  0.6     
21 23.09.10 270 (З) >10 км    1/0 средняя 
[Ac trans]
+10.5 +8 85 +10  1022.1  0.4  726  280           
00 24.09.10 300 (СЗ) >10 км    5/0 средняя 
[Ac trans]
+12.8 +9 78 +14  1021.6  726  278           
03 24.09.10 310 (СЗ) >10 км    8/0 средняя 
[Ac trans]
+11.7 +8.2 79 +12  1022.1  0.3  727  279           
06 24.09.10 010 (С) >10 км    3/0 средняя 
[Ac trans]
+15.5 +8.2 62 +16  1022.8  1.3  728  276  +10.2         
09 24.09.10 040 (СВ) >10 км    6/6 800 м 
[Cu hum]
+18 +9 56 +19  1022  -0.3  727  273           
12 24.09.10 010 (С) >10 км    3/3 1000 м 
[Cu hum]
+19.1 +8.5 50 +20  1020.5  -1.2  726  272           
15 24.09.10 060 (СВ) >10 км    ясно 
+16.4 +8.8 61 +16  1020.3  -0.7  726  274           
18 24.09.10 080 (В) >10 км    ясно 
+11.7 +7.8 77 +11  1021.5  0.3  726  279    +20.1       
21 24.09.10 070 (В) >10 км    ясно 
+10.6 +6.5 76 +10  1021.2  -0.6  726  280           
00 25.09.10 120 (ЮВ) >10 км    ясно 
+9.9 +6.7 81 +9  1020.8  -0.4  725  281           
03 25.09.10 100 (В) >10 км    3/0 средняя 
[Ac trans]
+9.2 +5.6 78 +8  1020.4  -0.6  725  282           
06 25.09.10 100 (В) >10 км    ясно 
+14.8 +7.1 60 +14  1019.5  0.2  725  276  +8.4         
09 25.09.10 100 (В) >10 км    ясно 
+19.7 +7.4 45 +20  1018.3  -0.2  725  271           
12 25.09.10 100 (В) 10  >10 км    1/0 средняя 
[Ac trans]
+21.3 +6.5 38 +21  1016.4  -1.6  724  269           
15 25.09.10 100 (В) >10 км    8/0 верхняя 
[Ci fib]
+18.2 +7.1 48 +18  1016.6  -0.3  723  272           
18 25.09.10 090 (В) >10 км    8/0 верхняя 
[Ci fib]
+15.3 +6.2 55 +15  1016.3  -0.8  723  275    +22.3       
21 25.09.10 100 (В) >10 км    10/0 средняя, верхняя 
[Ac trans|Ci fib]
+14.3 +8.5 68 +14  1016.3  -0.2  723  275           
00 26.09.10 100 (В) >10 км    10/0 средняя, верхняя 
[Ac trans|Ci fib]
+13.2 +10.2 82 +14  1015.1  -1.3  722  275           
03 26.09.10 100 (В) >10 км    8/0 средняя, верхняя 
[Ac trans|Ci fib]
+12.6 +11.4 92 +16  1016.3  1.1  723  276           
06 26.09.10 110 (В) >10 км    10/8 450 м средняя 
[Sc|Ac und]
+15.4 +13 86 +20  1016.4  0.6  723  273  +12.4         
09 26.09.10 130 (ЮВ) >10 км    8/8 540 м 
[Sc]
+19.2 +13.2 68 +26  1015.9  0.2  723  270           
12 26.09.10 110 (В) >10 км    3/3 600 м 
[Sc]
+21.6 +13 58 +28  1015.4  723  267           
15 26.09.10 140 (ЮВ) >10 км    3/0 
+17.7 +13.2 75 +25  1016.5  0.3  723  271           
18 26.09.10 140 (ЮВ) >10 км    ясно 
+15.2 +13 87 +21  1017.3  0.3  724  274    +22.2       
21 26.09.10 140 (ЮВ) >10 км    ясно 
+14.4 +13.3 93 +21  1016.8  -0.6  723  274           
00 27.09.10 140 (ЮВ) 10 км    4/4 600 м 
[Sc]
+13.9 +13.5 97 +21  1016.8  -0.1  723  274           
03 27.09.10 140 (ЮВ) 0800 м  туман  ясно 
+13.1 +12.9 99 +19  1017  723  275           
06 27.09.10 100 (В) >10 км  {туман}  3/0 средняя 
[Ac trans]
+17.5 +15.5 88 +29  1016.2  0.2  723  270  +13         
09 27.09.10 080 (В) >10 км    3/0 средняя 
[Ac trans]
+24.2 +14 53 +32  1015  -0.1  723  265           
12 27.09.10 080 (В) >10 км    8/0 средняя 
[Ac trans]
+26 +13.6 46 +33  1014.4  -0.2  723  263           
15 27.09.10 130 (ЮВ) >10 км    8/0 средняя 
[Ac trans]
+22.1 +15.1 64 +32  1014.6  -0.5  723  266           
18 27.09.10 140 (ЮВ) >10 км    3/0 средняя 
[Ac trans]
+18.3 +13.1 72 +25  1015.7  0.3  723  270    +27.3       
21 27.09.10 200 (Ю) >10 км    ясно 
+17.7 +11.1 65 +21  1014.8  -1  722  271           
00 28.09.10 150 (ЮВ) >10 км    ясно 
+16.9 +9.4 61 +19  1013.7  -1.2  721  272           
03 28.09.10 140 (ЮВ) >10 км    3/0 верхняя 
[Ci fib]
+16.1 +10.6 70 +19  1013.2  -0.5  721  272           
06 28.09.10 170 (Ю) >10 км    8/0 верхняя 
[Ci fib]
+24.1 +10.4 42 +27  1012  0.2  721  265  +15.5         
09 28.09.10 100 (В) >10 км    8/0 верхняя 
[Ci fib]
+28.4 +9.9 31 +30  1010.9  -0.4  721  261           
12 28.09.10 180 (Ю) >10 км    8/0 средняя, верхняя 
[Ac trans|Ci fib]
+30.8 +8.5 25 +31  1009.8  -0.7  720  259           
15 28.09.10 330 (СЗ) >10 км    8/0 средняя 
[Ac trans]
+25 +12.1 45 +30  1010.9  0.2  720  264           
18 28.09.10 270 (З) >10 км    5/0 средняя 
[Ac trans]
+21.6 +14 62 +30  1011.9  0.4  721  266    +31.2       
21 28.09.10 250 (З) >10 км  в посл. час гроза  5/0 средняя 
[Ac trans]
+19.9 +14.8 72 +30  1011.8  -0.3  720  267           
00 29.09.10 240 (ЮЗ) 10 км  слаб. ливневой дождь{гроза}  10/4 1000 м кучево-дожд., средняя 
[Cb cap|Ac und]
+18.6 +15.8 84 +31  1011.9  -0.2  720  268           
03 29.09.10 260 (З) 4000 м  дымка{ливн. осадки}  9/5 600 м кучево-дожд., средняя 
[Cb calv|Ac trans]
+18.1 +16.7 92 +31  1012.5  0.5  721  269           
06 29.09.10 220 (ЮЗ) 10 км  слаб. ливневой дождь  9/5 600 м кучево-дожд., средняя 
[Cb cap|Ac trans]
+18 +16.4 90 +30  1012.5  721  269  +17.4       
09 29.09.10 290 (З) >10 км  {ливн. осадки}  9/0 средняя, верхняя 
[Ac trans|Ci fib]
+22.5 +15.3 64 +33  1011.5  -0.2  720  265           
12 29.09.10 310 (СЗ) >10 км  {ливн. осадки}  9/3 1000 м кучево-дожд., средняя 
[Cb calv|Ac trans]
+22.8 +12.3 52 +28  1010.6  -0.8  720  265           
15 29.09.10 330 (СЗ) >10 км    10/5 1000 м кучево-дожд., средняя 
[Cb calv|Ac und]
+21.8 +13.1 58 +28  1010.7  -0.1  720  266           
18 29.09.10 310 (СЗ) 2000 м  гроза, ливневой дождь  10/8 450 м кучево-дожд., средняя 
[Cb cap|Ac und]
+16.4 +13.7 84 +24  1012.3  0.6  720  271    +23  0.0     
21 29.09.10 200 (Ю) 10 км  гроза, ливневой дождь  10/8 480 м кучево-дожд., средняя 
[Cb cap|Ac und]
+15 +13.7 92 +24  1011.6  -0.9  720  272           
00 30.09.10 170 (Ю) >10 км  слаб. ливневой дождь, в посл. час гроза  10/8 420 м кучево-дожд., средняя 
[Cb cap|Ac und]
+14.8 +14.1 96 +23  1010.7  -0.9  719  272           
03 30.09.10 100 (В) >10 км  {ливн. осадки}  10/5 600 м кучево-дожд., средняя 
[Cb calv|Ac und]
+15 +13.9 93 +24  1009.8  -0.9  718  271           
06 30.09.10 160 (Ю) >10 км  {ливн. осадки}  8/3 600 м кучево-дожд., средняя, верхняя 
[Cb cap|Ac trans|Ci sp]
+18.4 +17.6 95 +34  1007.4  -1.5  717  267  +14.2    13     
09 30.09.10 130 (ЮВ) >10 км    10/3 600 м кучево-дожд., средняя, верхняя 
[Cb cap|Ac trans|Ci sp]
+21.4 +15 67 +31  1005.1  -1.7  716  264           
12 30.09.10 130 (ЮВ) >10 км    8/3 1000 м кучево-дожд., средняя, верхняя 
[Cb cap|Ac trans|Ci sp]
+25.1 +14.8 53 +35  1001.1  -3.2  713  260           
15 30.09.10 260 (З) >10 км  гроза без осадков{ливн. осадки}  10/6 300 м кучево-дожд., средняя 
[Cb cap|Ac und]
+17.3 +16.3 94 +29  1005.5  2.9  716  267           
18 30.09.10 250 (З) >10 км  {гроза, ливн. осадки}  ясно 
+16.1 +12.8 81 +22  1006  0.1  716  270    +25.4  10     
21 30.09.10 280 (З) 15-20{21}  >10 км    3/3 600 м 
[Sc diur, vesp]
+16 +9 63 +15  1006.2  0.2  716  271           
00 01.10.10 270 (З) 5{20}  >10 км    3/3 600 м 
[Sc]
+13 +8.1 72 +12  1009.5  2.5  718  275           
03 01.10.10 270 (З) >10 км    3/3 600 м 
[Sc]
+12.7 +9.3 80 +12  1010.7  1.2  719  275           
06 01.10.10 270 (З) 10  >10 км    4/3 600 м средняя 
[Sc|Ac trans]
+13.7 +6.8 63 +12  1018.9  1.3  720  275  +12.4    0.0     
09 01.10.10 290 (З) 13  >10 км    5/5 600 м 
[Cu med, cong]
+17.6 +8.2 54 +17  1010.6  -0.6  719  271           
12 01.10.10 270 (З) >10 км    6/4 600 м кучево-дожд., средняя 
[Cb calv|Ac trans]
+18.9 +7.3 47 +19  1010.9  0.5  719  270           
15 01.10.10 280 (З) >10 км    8/3 600 м кучево-дожд., средняя, верхняя 
[Cb calv|Ac trans|Ci fib]
+14.1 +9.7 75 +15  1013.1  1.3  720  274           
18 01.10.10 310 (СЗ) >10 км    4/0 средняя 
[Ac trans]
+12.9 +9.5 80 +13  1014.5  721  276    +19.7       
21 01.10.10 300 (СЗ) >10 км    5/0 средняя 
[Ac trans]
+11.4 +9.7 89 +13  1015.8  722  277           
00 02.10.10 270 (З) >10 км    8/0 средняя 
[Ac trans]
+11 +8.7 86 +10  1016.3  0.6  722  278           
03 02.10.10 310 (СЗ) 10 км    10/6 400 м кучево-дожд., средняя 
[Cb calv|Ac und]
+10.3 +9 92 +10  1017.7  1.2  723  279           
06 02.10.10 310 (СЗ) 4000 м  дымка  10/6 300 м кучево-дожд., средняя 
[Cb calv|Ac und]
+10 +7 82 +10  1018.3  0.4  724  280  +9.8         
Время (UTC), дата Ветер
(°,м/с) 
Видим.   Явления Облачность Т
(°С)
Тd
(°С)
f(%) Тe
(°С)
Pmin
(гПа)
dP
(гПа)
Po
(мм)
O2
(г/м3)
Тmin Tmax R s Состояние
почвы